Regional Weather Roundup
Issued by NWS

Home | Current Version | Previous Version | Graphics & Text | Print | Product List | Glossary On
Versions: 1 2 3 4 5 6 7 8 9 10 11 12 13 14 15 16 17 18 19 20 21 22 23 24 25 26 27 28 29 30 31 32 33 34 35 36 37 38 39 40 41 42 43 44 45 46 47 48 49 50
000
ASUS43 KBIS 191710
RWRND

NORTH DAKOTA REGIONAL WEATHER ROUNDUP
NATIONAL WEATHER SERVICE BISMARCK ND
1200 PM CDT WED JUL 19 2017

NOTE: "FAIR" INDICATES FEW OR NO CLOUDS BELOW 12,000 FEET WITH NO
SIGNIFICANT WEATHER AND/OR OBSTRUCTIONS TO VISIBILITY.


NDZ001>003-009>011-017-191800-
NORTHWEST NORTH DAKOTA

CITY           SKY/WX    TMP DP  RH WIND       PRES   REMARKS
WILLISTON      CLOUDY    75  63  66 SW7       29.94R
MINOT          CLOUDY    76  62  62 W10       29.93R
MINOT AFB      LGT RAIN  73  64  73 W7        29.92R
$$

NDZ018>021-031>035-040>046-191800-
SOUTHWEST NORTH DAKOTA

CITY           SKY/WX    TMP DP  RH WIND       PRES   REMARKS
BISMARCK       MOSUNNY   76  63  64 S12       29.97R
DICKINSON      CLOUDY    70  60  70 S9        30.01R
GARRISON         N/A     70  64  81 SW21G31   29.93R
HETTINGER ARPT CLOUDY    73  55  53 E16G25    30.03F
$$

NDZ004>008-012>016-024-026-027-054-191800-
NORTHEAST NORTH DAKOTA

CITY           SKY/WX    TMP DP  RH WIND       PRES   REMARKS
GRAND FORKS    CLOUDY    72  62  71 S15G24    29.94F
GRND FRKS AFB  CLOUDY    71  61  71 S17       29.95F
DEVILS LAKE    CLOUDY    70  60  70 CALM      29.96R
$$

NDZ022-023-025-028>030-036>039-047>053-191800-
SOUTHEAST NORTH DAKOTA

CITY           SKY/WX    TMP DP  RH WIND       PRES   REMARKS
FARGO          LGT RAIN  69  64  84 S16       30.04F
JAMESTOWN      LGT RAIN  67  63  87 S16G23    30.02R
$$





USA.gov is the U.S. government's official web portal to all federal, state and local government web resources and services.